Retour au catalogue

SL-14 R/B

ActifPO
NORAD 16144·ROCKET BODY·🇷🇺 Russia

Lancé Oct 9, 1985 depuis Plesetsk Cosmodrome

Loading…

Prochains Passages (prochaines 24 heures)

TLE

FraisSource: Space-Track

Époque: Sep 14, 2026, 13:25 UTC

1 16144U 85094G   26257.55960547  .00000016  00000-0  37405-4 0  9995
2 16144  82.6146 357.5066 0035173 255.5315 115.4536 12.54894620874962

Suivez SL-14 R/B en temps réel avec AllMySat

Download on the App Store